timestamp,wind_dir_avg,wind_spd_avg,wind_spd_max_dir,wind_spd_gust,battery_voltage,lat,long
2022-10-18 00:04:01+00:00,240.0,5.12,241.0,5.8,12.49,47.59359,-54.27349
2022-10-18 00:14:00+00:00,241.0,5.9,240.0,6.72,12.49,47.59359,-54.27349
2022-10-18 00:24:00+00:00,237.0,4.79,239.0,5.4,12.49,47.59359,-54.27349
2022-10-18 00:34:00+00:00,246.0,4.62,241.0,5.4,12.49,47.59359,-54.27349
2022-10-18 00:44:00+00:00,276.0,4.45,285.0,5.34,12.49,47.59359,-54.27349
2022-10-18 00:54:00+00:00,273.0,5.09,270.0,7.09,12.49,47.59359,-54.27349
2022-10-18 01:04:00+00:00,271.0,4.07,270.0,4.7,12.49,47.59359,-54.27349
2022-10-18 01:14:00+00:00,266.0,3.59,266.0,4.14,12.49,47.59359,-54.27349
2022-10-18 01:24:00+00:00,265.0,3.89,265.0,4.65,12.49,47.59359,-54.27349
2022-10-18 01:34:00+00:00,252.0,2.81,250.0,3.17,12.49,47.59359,-54.27349
2022-10-18 01:44:00+00:00,261.0,3.76,268.0,4.39,12.49,47.59359,-54.27349
2022-10-18 01:54:00+00:00,275.0,4.06,273.0,4.71,12.49,47.59359,-54.27349
2022-10-18 02:04:00+00:00,288.0,3.67,288.0,4.0,12.49,47.59359,-54.27349
2022-10-18 02:14:01+00:00,286.0,3.67,288.0,4.05,12.49,47.59359,-54.27349
2022-10-18 02:24:01+00:00,291.0,3.89,289.0,4.31,12.49,47.59359,-54.27349
2022-10-18 02:34:01+00:00,287.0,4.45,288.0,4.71,12.49,47.59359,-54.27349
2022-10-18 02:44:01+00:00,292.0,3.57,292.0,3.86,12.49,47.59359,-54.27349
2022-10-18 02:54:01+00:00,288.0,4.0,291.0,4.73,12.49,47.59359,-54.27349
2022-10-18 03:04:01+00:00,273.0,3.96,270.0,4.75,12.49,47.59359,-54.27349
2022-10-18 03:14:00+00:00,261.0,3.2,253.0,3.64,12.41,47.59359,-54.27349
2022-10-18 03:24:00+00:00,263.0,2.93,261.0,3.13,12.41,47.59359,-54.27349
2022-10-18 03:34:00+00:00,245.0,3.16,242.0,3.69,12.41,47.59359,-54.27349
2022-10-18 03:44:00+00:00,276.0,3.52,272.0,4.46,12.41,47.59359,-54.27349
2022-10-18 03:54:00+00:00,267.0,2.75,268.0,3.18,12.41,47.59359,-54.27349
2022-10-18 04:04:00+00:00,251.0,2.83,251.0,3.13,12.41,47.59359,-54.27349
2022-10-18 04:14:00+00:00,231.0,2.33,235.0,2.83,12.41,47.59359,-54.27349
2022-10-18 04:24:00+00:00,223.0,2.0,228.0,2.3,12.41,47.59359,-54.27349
2022-10-18 04:34:00+00:00,230.0,1.63,231.0,2.31,12.41,47.59359,-54.27349
2022-10-18 04:44:00+00:00,215.0,1.99,218.0,2.27,12.41,47.59359,-54.27349
2022-10-18 04:54:00+00:00,220.0,2.01,227.0,2.28,12.41,47.59359,-54.27349
2022-10-18 05:04:00+00:00,235.0,1.3,239.0,1.65,12.41,47.59359,-54.27349
2022-10-18 05:14:01+00:00,233.0,3.17,227.0,3.4,12.41,47.59359,-54.27349
2022-10-18 05:24:01+00:00,220.0,2.18,206.0,2.93,12.41,47.59359,-54.27349
2022-10-18 05:34:01+00:00,251.0,2.53,258.0,2.88,12.41,47.59359,-54.27349
2022-10-18 05:44:01+00:00,230.0,3.12,226.0,4.01,12.41,47.59359,-54.27349
2022-10-18 05:54:01+00:00,235.0,2.28,233.0,2.56,12.41,47.59359,-54.27349
2022-10-18 06:04:01+00:00,249.0,2.98,253.0,3.24,12.41,47.59359,-54.27349
2022-10-18 06:14:01+00:00,277.0,3.01,273.0,3.45,12.41,47.59359,-54.27349
2022-10-18 06:24:01+00:00,264.0,3.08,265.0,3.37,12.41,47.59359,-54.27349
2022-10-18 06:34:01+00:00,287.0,2.23,288.0,2.76,12.41,47.59359,-54.27349
2022-10-18 06:44:01+00:00,289.0,2.31,284.0,3.04,12.41,47.59359,-54.27349
2022-10-18 06:54:01+00:00,270.0,3.09,271.0,3.32,12.41,47.59359,-54.27349
2022-10-18 07:04:01+00:00,265.0,1.57,261.0,2.02,12.41,47.59359,-54.27349
2022-10-18 07:14:00+00:00,273.0,1.74,273.0,2.0,12.41,47.59359,-54.27349
2022-10-18 07:24:00+00:00,270.0,1.81,271.0,2.15,12.41,47.59359,-54.27349
2022-10-18 07:34:00+00:00,234.0,1.87,236.0,2.04,12.41,47.59359,-54.27349
2022-10-18 07:44:00+00:00,218.0,1.68,220.0,1.85,12.41,47.59359,-54.27349
2022-10-18 07:54:00+00:00,223.0,1.43,214.0,1.67,12.41,47.59359,-54.27349
2022-10-18 08:04:00+00:00,259.0,0.77,248.0,0.98,12.41,47.59359,-54.27349
2022-10-18 08:14:01+00:00,238.0,1.1,245.0,1.38,12.33,47.59359,-54.27349
2022-10-18 08:24:01+00:00,251.0,1.04,258.0,1.21,12.33,47.59359,-54.27349
2022-10-18 08:34:01+00:00,277.0,1.71,271.0,2.25,12.33,47.59359,-54.27349
2022-10-18 08:44:01+00:00,277.0,1.15,266.0,1.91,12.33,47.59359,-54.27349
2022-10-18 08:54:01+00:00,319.0,3.02,308.0,4.2,12.33,47.59359,-54.27349
2022-10-18 09:04:01+00:00,345.0,2.08,341.0,2.51,12.33,47.59359,-54.27349
2022-10-18 09:14:01+00:00,326.0,2.32,307.0,3.4,12.33,47.59359,-54.27349
2022-10-18 09:24:01+00:00,347.0,3.05,349.0,3.47,12.33,47.59359,-54.27349
2022-10-18 09:34:01+00:00,351.0,2.17,350.0,2.66,12.33,47.59359,-54.27349
2022-10-18 09:44:01+00:00,351.0,2.24,0.0,2.75,12.33,47.59359,-54.27349
2022-10-18 09:54:01+00:00,341.0,2.52,340.0,2.97,12.33,47.59359,-54.27349
2022-10-18 10:04:01+00:00,341.0,2.97,341.0,3.43,12.33,47.59359,-54.27349
2022-10-18 10:14:00+00:00,359.0,2.81,1.0,3.17,12.33,47.59359,-54.27349
2022-10-18 10:24:00+00:00,4.0,3.75,357.0,4.27,12.33,47.59359,-54.27349
2022-10-18 10:34:00+00:00,352.0,3.28,353.0,3.72,12.33,47.59359,-54.27349
2022-10-18 10:44:00+00:00,10.0,3.18,356.0,3.81,12.33,47.59359,-54.27349
2022-10-18 10:54:00+00:00,8.0,3.98,16.0,4.64,12.33,47.59359,-54.27349
2022-10-18 11:04:00+00:00,355.0,3.67,354.0,4.32,12.33,47.59359,-54.27349
2022-10-18 11:14:01+00:00,349.0,3.5,1.0,4.29,12.41,47.59359,-54.27349
2022-10-18 11:24:01+00:00,359.0,3.5,2.0,4.07,12.41,47.59359,-54.27349
2022-10-18 11:34:01+00:00,28.0,3.39,28.0,3.98,12.41,47.59359,-54.27349
2022-10-18 11:44:01+00:00,32.0,3.05,36.0,3.66,12.41,47.59359,-54.27349
2022-10-18 11:54:01+00:00,23.0,2.37,34.0,2.78,12.41,47.59359,-54.27349
2022-10-18 12:04:01+00:00,36.0,3.51,44.0,4.07,12.41,47.59359,-54.27349
2022-10-18 12:14:00+00:00,45.0,3.45,45.0,3.93,14.32,47.59359,-54.27349
2022-10-18 12:24:00+00:00,35.0,3.95,36.0,4.36,14.32,47.59359,-54.27349
2022-10-18 12:34:00+00:00,10.0,2.8,17.0,3.26,14.32,47.59359,-54.27349
2022-10-18 12:44:00+00:00,341.0,2.76,336.0,3.07,14.32,47.59359,-54.27349
2022-10-18 12:54:00+00:00,356.0,2.59,349.0,2.89,14.32,47.59359,-54.27349
2022-10-18 13:04:00+00:00,37.0,2.51,40.0,2.84,14.32,47.59359,-54.27349
2022-10-18 13:14:00+00:00,29.0,2.7,39.0,3.33,13.92,47.59359,-54.27349
2022-10-18 13:24:00+00:00,30.0,3.25,31.0,3.81,13.92,47.59359,-54.27349
2022-10-18 13:34:00+00:00,53.0,2.38,56.0,2.78,13.92,47.59359,-54.27349
2022-10-18 13:44:00+00:00,52.0,2.68,51.0,3.32,13.92,47.59359,-54.27349
2022-10-18 13:54:00+00:00,60.0,2.62,57.0,3.2,13.92,47.59359,-54.27349
2022-10-18 14:04:00+00:00,65.0,4.11,60.0,4.55,13.92,47.59359,-54.27349
2022-10-18 14:14:00+00:00,67.0,5.81,66.0,6.57,14.32,47.59359,-54.27349
2022-10-18 14:24:00+00:00,65.0,5.32,59.0,6.08,14.32,47.59359,-54.27349
2022-10-18 14:34:00+00:00,53.0,4.85,52.0,5.42,14.32,47.59359,-54.27349
2022-10-18 14:44:00+00:00,55.0,4.91,57.0,5.71,14.32,47.59359,-54.27349
2022-10-18 14:54:00+00:00,58.0,4.34,56.0,4.84,14.32,47.59359,-54.27349
2022-10-18 15:04:00+00:00,53.0,5.47,53.0,6.1,14.32,47.59359,-54.27349
2022-10-18 15:14:00+00:00,52.0,5.11,53.0,5.89,13.84,47.59359,-54.27349
2022-10-18 15:24:00+00:00,50.0,4.33,51.0,5.09,13.84,47.59359,-54.27349
2022-10-18 15:34:00+00:00,76.0,3.59,83.0,4.24,13.84,47.59359,-54.27349
2022-10-18 15:44:00+00:00,51.0,3.68,50.0,4.09,13.84,47.59359,-54.27349
2022-10-18 15:54:00+00:00,45.0,4.37,45.0,4.73,13.84,47.59359,-54.27349
2022-10-18 16:04:00+00:00,32.0,4.44,35.0,5.06,13.84,47.59359,-54.27349
2022-10-18 16:14:00+00:00,32.0,4.77,31.0,5.16,13.84,47.59359,-54.27349
2022-10-18 16:24:00+00:00,24.0,4.79,24.0,5.28,13.84,47.59359,-54.27349
2022-10-18 16:34:00+00:00,34.0,5.04,35.0,6.31,13.84,47.59359,-54.27349
2022-10-18 16:44:00+00:00,38.0,3.86,36.0,4.16,13.84,47.59359,-54.27349
2022-10-18 16:54:00+00:00,31.0,4.16,32.0,4.95,13.84,47.59359,-54.27349
2022-10-18 17:04:00+00:00,38.0,3.08,38.0,3.96,13.84,47.59359,-54.27349
2022-10-18 17:14:00+00:00,61.0,4.53,62.0,5.24,13.84,47.59359,-54.27349
2022-10-18 17:24:00+00:00,43.0,4.13,34.0,5.3,13.84,47.59359,-54.27349
2022-10-18 17:34:00+00:00,51.0,3.79,46.0,4.35,13.84,47.59359,-54.27349
2022-10-18 17:44:00+00:00,51.0,4.25,51.0,4.66,13.84,47.59359,-54.27349
2022-10-18 17:54:00+00:00,53.0,4.26,49.0,4.73,13.84,47.59359,-54.27349
2022-10-18 18:04:00+00:00,52.0,4.41,54.0,5.21,13.84,47.59359,-54.27349
2022-10-18 18:14:00+00:00,66.0,4.83,70.0,5.53,13.84,47.59359,-54.27349
2022-10-18 18:24:00+00:00,46.0,5.12,47.0,5.62,13.84,47.59359,-54.27349
2022-10-18 18:34:00+00:00,51.0,4.67,57.0,5.52,13.84,47.59359,-54.27349
2022-10-18 18:44:00+00:00,55.0,3.52,57.0,4.0,13.84,47.59359,-54.27349
2022-10-18 18:54:00+00:00,52.0,4.68,43.0,5.99,13.84,47.59359,-54.27349
2022-10-18 19:04:00+00:00,45.0,5.12,46.0,5.97,13.84,47.59359,-54.27349
2022-10-18 19:14:00+00:00,47.0,4.67,40.0,5.15,13.44,47.59359,-54.27349
2022-10-18 19:24:00+00:00,49.0,5.38,46.0,6.01,13.44,47.59359,-54.27349
2022-10-18 19:34:00+00:00,73.0,5.01,69.0,5.99,13.44,47.59359,-54.27349
2022-10-18 19:44:00+00:00,70.0,4.68,76.0,5.23,13.44,47.59359,-54.27349
2022-10-18 19:54:00+00:00,69.0,4.43,62.0,5.39,13.44,47.59359,-54.27349
2022-10-18 20:04:00+00:00,71.0,4.68,59.0,5.99,13.44,47.59359,-54.27349
2022-10-18 20:14:00+00:00,66.0,5.08,61.0,6.07,13.13,47.59359,-54.27349
2022-10-18 20:24:00+00:00,62.0,5.08,64.0,5.57,13.13,47.59359,-54.27349
2022-10-18 20:34:00+00:00,62.0,5.29,61.0,6.54,13.13,47.59359,-54.27349
2022-10-18 20:44:00+00:00,65.0,6.32,66.0,7.37,13.13,47.59359,-54.27349
2022-10-18 20:54:00+00:00,72.0,6.13,74.0,7.52,13.13,47.59359,-54.27349
2022-10-18 21:04:00+00:00,66.0,6.46,69.0,9.17,13.13,47.59359,-54.27349
2022-10-18 21:14:00+00:00,71.0,7.54,73.0,8.9,12.57,47.59359,-54.27349
2022-10-18 21:24:00+00:00,70.0,7.7,71.0,9.18,12.57,47.59359,-54.27349
2022-10-18 21:34:00+00:00,60.0,8.95,63.0,10.38,12.57,47.59359,-54.27349
2022-10-18 21:44:00+00:00,61.0,7.44,64.0,9.96,12.57,47.59359,-54.27349
2022-10-18 21:54:00+00:00,66.0,7.84,71.0,9.88,12.57,47.59359,-54.27349
2022-10-18 22:04:00+00:00,71.0,7.94,69.0,9.58,12.57,47.59359,-54.27349
2022-10-18 22:14:00+00:00,68.0,6.78,73.0,9.55,12.49,47.59359,-54.27349
2022-10-18 22:24:00+00:00,71.0,7.85,81.0,9.31,12.49,47.59359,-54.27349
2022-10-18 22:34:00+00:00,63.0,8.83,59.0,10.19,12.49,47.59359,-54.27349
2022-10-18 22:44:00+00:00,64.0,8.31,62.0,10.03,12.49,47.59359,-54.27349
2022-10-18 22:54:00+00:00,64.0,8.23,72.0,9.81,12.49,47.59359,-54.27349
2022-10-18 23:04:00+00:00,63.0,6.93,69.0,9.65,12.49,47.59359,-54.27349
2022-10-18 23:14:01+00:00,65.0,8.26,67.0,9.86,12.49,47.59359,-54.27349
2022-10-18 23:24:01+00:00,56.0,8.37,63.0,9.69,12.49,47.59359,-54.27349
2022-10-18 23:34:01+00:00,62.0,8.47,60.0,10.02,12.49,47.59359,-54.27349
2022-10-18 23:44:01+00:00,63.0,6.71,61.0,8.23,12.49,47.59359,-54.27349
2022-10-18 23:54:01+00:00,70.0,7.45,72.0,9.48,12.49,47.59359,-54.27349
